Terminal Aerodrome Forecast
Issued by NWS Grand Forks, ND

Home | Current Version | Previous Version | Graphics & Text | Print | Product List | Glossary On
Versions: 1 2 3 4 5 6 7 8 9 10 11 12 13 14 15 16 17 18 19 20
126
FTUS43 KFGF 080133 AAA
TAFFAR
TAF AMD
KFAR 080133Z 0802/0824 34024G31KT 1SM -SN BLSN OVC015
     FM080400 34023G28KT P6SM OVC025
     FM081500 34024G31KT P6SM BKN040=

USA.gov is the U.S. government's official web portal to all federal, state and local government web resources and services.